Wind_Speed
32 28 26 24 24 24 26 26 24 21 23 22 21 21 19 19 18 17 16 15 15 15 14 13 13 13 13 14 14 14 15 15 15 15 15 16 16 17 17 17 17 17 17 17
35 32 30 27 24 24 25 25 25 22 22 23 25 22 21 20 19 18 18 17 16 15 15 15 15 14 15 15 15 16 16 16 16 16 17 17 18 18 18 18 18 18 18 18
36 33 30 30 28 25 25 25 26 26 26 25 25 24 23 22 21 20 19 18 17 16 16 16 16 16 16 17 17 17 17 17 17 17 18 18 19 19 19 19 19 19 19 18
34 33 34 31 28 27 27 26 26 26 26 27 27 26 25 24 23 22 20 19 18 17 17 18 18 18 18 18 18 18 19 19 19 19 19 19 20 20 19 19 19 19 19 18
35 33 33 31 29 27 28 29 29 29 29 29 29 29 28 27 26 24 21 20 19 18 18 19 19 19 19 19 20 20 20 21 20 20 20 21 21 20 20 20 19 19 19 19
35 33 32 30 29 28 29 31 30 31 30 30 30 29 28 28 27 25 23 22 21 20 20 20 20 20 20 20 21 21 22 22 22 21 22 21 21 20 20 20 20 20 19 19
35 33 31 30 29 28 31 32 31 32 32 32 31 30 28 27 27 26 25 24 23 21 21 21 21 21 22 22 22 23 23 22 22 22 23 22 22 22 21 21 22 21 21 21
36 34 33 31 31 33 33 32 32 32 33 33 32 32 30 29 28 26 26 25 24 23 23 23 24 24 24 23 23 24 24 23 23 23 23 23 23 23 22 22 22 23 23 23
36 38 37 34 34 35 36 35 34 34 33 33 33 32 32 30 28 28 28 27 26 25 25 25 25 25 25 25 25 25 25 25 24 24 24 24 24 24 24 23 24 24 24 24
37 37 37 37 37 37 37 36 36 35 34 34 33 32 32 31 31 30 30 29 28 28 27 27 27 26 26 26 26 26 26 26 25 24 24 25 25 25 25 25 25 25 25 25
41 39 38 38 37 38 37 36 36 35 34 33 33 34 33 32 31 31 30 30 29 29 29 28 28 27 27 27 27 27 27 26 26 25 26 26 27 27 27 26 26 26 26 26
40 41 39 38 38 38 37 35 36 35 34 33 33 34 32 31 31 30 30 30 30 30 29 29 29 29 28 28 28 28 27 27 27 27 27 28 27 27 27 28 28 28 28 28
38 38 39 38 37 36 36 36 36 35 35 34 34 34 32 32 31 31 30 30 30 31 31 30 30 30 29 29 29 28 28 28 28 28 29 29 28 28 29 29 29 29 29 29
37 36 37 38 36 35 35 35 35 35 34 33 33 33 33 32 31 31 31 31 31 31 31 30 30 30 30 30 30 29 29 30 29 29 29 29 29 29 29 30 30 30 30 30
37 36 36 37 36 35 35 35 35 35 34 33 33 33 33 32 31 31 32 32 32 31 31 31 31 30 30 30 30 30 31 30 30 29 29 30 30 30 30 30 31 31 30 31
36 36 35 35 36 36 36 35 35 34 34 33 32 33 33 32 31 31 32 32 32 32 32 32 32 31 31 30 30 30 30 30 30 30 30 31 31 31 31 31 31 30 30 30
33 34 34 34 35 35 34 36 34 34 33 33 33 33 33 33 32 33 33 33 33 33 33 33 33 32 32 31 31 31 30 30 31 31 32 32 32 32 32 32 31 31 31 30
33 33 33 33 34 34 33 35 36 34 33 33 33 32 32 32 32 33 33 33 33 33 33 33 34 34 33 33 31 31 32 32 32 33 33 33 33 33 32 32 31 31 31 30
30 32 32 32 32 33 33 33 34 35 34 33 33 34 34 34 33 33 32 32 32 32 32 33 33 33 33 33 33 33 32 33 33 33 33 33 32 32 32 31 31 30 29 28
29 30 30 31 31 32 33 33 33 33 33 33 33 33 34 34 33 32 32 31 31 31 32 32 32 32 32 32 32 32 33 33 33 32 32 31 32 31 31 30 30 29 28 28
28 29 30 31 31 31 32 32 33 33 33 33 33 33 33 33 32 32 32 32 31 30 30 31 31 31 31 32 32 32 32 31 31 31 31 31 31 31 30 30 29 29 28 28
28 29 29 30 30 30 30 31 32 32 32 32 32 33 33 32 32 33 33 33 32 31 30 30 30 31 30 31 31 30 30 29 29 29 30 31 30 30 29 29 28 28 28 28
28 29 30 30 31 30 30 30 31 32 32 31 31 32 32 32 32 31 31 32 32 31 31 30 30 30 30 30 29 28 28 28 28 28 28 29 29 28 28 27 27 27 28 29
27 28 29 29 30 30 30 30 30 31 31 31 31 30 30 30 31 31 30 30 30 30 29 28 28 28 29 28 27 26 26 26 26 26 26 26 27 27 27 27 27 28 28 28
27 28 28 28 29 29 29 29 29 29 29 30 30 29 29 28 28 29 29 28 28 28 28 28 27 27 27 27 26 25 25 25 26 26 26 26 26 26 27 28 28 27 27 27
26 27 27 28 27 27 27 28 28 27 27 28 28 28 28 27 27 28 28 28 29 28 28 27 27 27 26 26 25 25 25 25 25 25 26 26 27 27 26 26 27 27 27 27
24 25 26 26 26 26 26 26 26 26 26 27 27 27 27 27 27 27 27 27 26 26 26 26 26 26 26 25 25 24 24 24 24 24 25 25 25 25 25 25 25 26 26 27
Wind_Direction
215 215 219 229 231 227 223 220 226 236 246 248 252 251 250 255 264 266 270 273 277 284 290 294 300 304 309 315 319 320 321 323 325 326 326 327 326 326 329 331 331 328 326 326
219 216 218 219 223 228 229 224 223 227 239 247 253 253 254 257 261 262 265 268 274 277 283 287 292 297 302 307 312 314 316 318 320 321 322 322 322 324 325 327 329 329 326 325
222 219 222 224 220 222 226 228 225 225 233 240 248 253 257 259 263 261 260 266 270 271 276 281 286 291 297 301 306 309 311 313 315 316 317 319 321 322 323 324 325 325 323 322
222 220 224 224 223 224 227 228 227 229 233 237 242 249 255 257 258 258 259 262 266 268 272 277 281 286 292 296 301 305 307 309 311 312 313 315 318 319 320 320 321 321 321 321
221 223 228 227 225 223 225 228 228 229 232 236 241 246 251 254 254 254 256 261 265 268 270 274 279 283 287 290 297 302 305 306 306 308 309 312 314 315 317 318 321 321 320 321
220 222 224 227 228 226 225 228 227 230 233 236 239 243 247 251 253 254 255 258 262 267 270 272 278 280 284 289 294 298 301 304 304 304 307 309 311 313 315 317 319 320 319 319
220 223 226 225 221 223 227 228 229 231 233 235 237 242 246 250 253 253 254 257 261 266 271 272 276 280 283 286 291 295 298 300 302 303 304 306 308 309 310 312 313 314 315 315
220 222 225 226 224 224 228 230 230 231 234 237 240 243 246 249 251 253 253 256 260 264 269 273 276 279 282 284 288 291 294 296 298 300 301 302 304 306 307 310 311 312 313 314
221 221 222 223 227 228 230 233 234 234 237 240 241 243 246 249 250 252 254 255 258 263 268 272 276 278 281 284 286 289 292 294 296 296 297 299 301 303 305 307 308 311 310 311
220 220 221 223 228 231 232 234 235 236 239 242 243 247 248 249 249 250 252 254 257 261 266 271 274 277 279 283 286 289 290 292 294 294 296 298 300 301 302 304 306 309 308 309
221 221 223 225 229 232 234 236 237 239 242 243 244 246 247 248 247 249 252 255 258 261 265 269 272 274 277 280 284 287 289 290 292 293 295 296 297 300 302 303 306 308 309 308
220 223 226 228 231 232 234 236 237 239 241 242 243 245 246 248 250 251 254 256 259 261 264 267 271 273 275 278 282 285 287 288 290 291 293 295 298 299 301 303 304 305 305 307
225 228 230 231 233 233 234 235 237 238 239 241 243 244 247 248 251 252 254 255 258 261 264 267 270 272 275 277 280 283 285 287 288 289 291 295 297 298 299 301 302 302 303 304
226 228 230 232 233 233 234 236 238 239 240 241 241 243 245 247 250 251 252 254 257 261 264 267 269 272 274 277 279 281 283 286 288 290 291 294 296 297 298 299 300 300 301 303
225 228 231 234 235 236 235 235 237 238 239 240 240 242 244 246 249 250 252 255 258 260 264 266 269 272 273 276 278 280 282 284 286 288 290 292 295 296 296 298 300 301 301 303
227 229 232 234 236 237 237 235 234 236 238 240 242 243 245 246 248 251 254 257 258 261 264 266 269 272 273 275 277 279 281 283 284 285 287 289 292 294 296 298 299 300 300 301
229 229 232 233 233 234 235 235 235 235 238 240 242 244 246 249 251 253 255 257 259 261 264 266 268 270 271 274 276 277 279 281 282 284 285 288 290 292 295 296 297 299 299 300
229 230 232 232 233 233 235 236 236 237 238 242 241 244 246 249 251 253 255 257 259 262 265 266 268 269 271 272 273 275 277 279 281 283 285 286 288 290 293 295 296 297 298 298
227 229 230 231 232 233 235 236 238 238 241 243 243 244 246 249 251 253 255 257 260 262 264 266 268 270 272 271 271 274 277 279 280 281 283 284 286 289 292 293 295 297 297 297
229 230 231 231 233 233 234 236 239 240 241 242 243 244 247 248 249 252 254 256 259 261 263 264 267 269 272 273 274 276 277 279 279 280 280 281 285 288 290 293 294 295 296 297
229 231 231 231 232 234 235 237 239 240 241 243 245 246 248 249 250 252 253 256 258 261 263 264 266 269 271 273 275 276 276 277 278 279 280 283 286 288 290 292 292 292 295 296
231 231 231 231 232 235 237 238 239 240 241 244 246 246 248 249 250 252 254 255 257 260 263 264 267 269 271 273 275 275 276 278 278 279 281 282 284 287 290 291 291 293 294 295
231 232 233 234 236 237 238 240 241 242 243 244 245 248 249 250 251 252 254 255 256 259 262 265 268 269 271 273 273 274 276 278 279 280 281 282 284 287 288 289 291 294 295 295
233 233 234 236 238 239 240 241 242 244 245 245 246 249 251 252 251 252 254 256 257 259 261 264 267 269 271 271 272 273 275 276 279 280 281 283 285 287 289 290 292 292 293 294
232 232 233 236 238 239 240 241 243 244 245 247 247 248 250 251 253 254 255 257 260 261 262 263 266 268 269 269 271 272 273 276 278 280 282 284 285 287 290 291 291 292 294 294
232 232 234 237 239 240 241 241 243 244 245 246 247 249 251 253 254 256 256 257 259 261 263 264 265 266 268 269 271 272 274 276 278 280 283 286 288 289 290 291 292 292 293 294
231 232 235 237 238 239 241 243 244 246 247 247 249 250 251 252 254 254 256 258 260 261 260 261 265 267 268 269 271 272 275 277 280 283 286 288 289 289 290 292 293 294 296 297
Height
5871 5876 5881 5885 5889 5893 5897 5901 5905 5908 5907 5906 5907 5906 5906 5909 5911 5912 5912 5913 5913 5913 5912 5912 5912 5911 5910 5909 5908 5906 5905 5903 5901 5899 5898 5896 5894 5892 5889 5887 5884 5882 5880 5877
5864 5869 5874 5878 5883 5887 5891 5895 5899 5903 5903 5903 5902 5902 5902 5905 5907 5908 5909 5909 5910 5910 5910 5910 5909 5909 5908 5907 5906 5905 5903 5901 5900 5898 5896 5894 5892 5889 5887 5884 5882 5879 5877 5875
5857 5863 5867 5871 5877 5882 5886 5889 5893 5896 5899 5900 5898 5898 5899 5901 5903 5903 5904 5905 5906 5906 5906 5906 5906 5906 5906 5905 5904 5902 5901 5899 5897 5895 5893 5891 5889 5887 5884 5881 5879 5877 5874 5872
5851 5857 5860 5867 5872 5876 5880 5883 5887 5889 5892 5893 5894 5894 5895 5897 5898 5899 5901 5901 5901 5902 5903 5903 5903 5903 5902 5902 5901 5899 5898 5896 5894 5893 5891 5888 5886 5884 5881 5879 5876 5874 5871 5869
5844 5849 5854 5860 5864 5869 5873 5876 5879 5882 5884 5886 5888 5889 5890 5891 5893 5894 5895 5897 5898 5898 5898 5899 5899 5899 5899 5898 5897 5896 5894 5893 5891 5889 5887 5885 5883 5880 5878 5875 5873 5871 5868 5866
5837 5842 5848 5854 5858 5861 5866 5868 5872 5874 5877 5879 5881 5882 5884 5885 5887 5889 5890 5891 5892 5893 5894 5894 5894 5894 5894 5894 5893 5892 5891 5889 5887 5885 5883 5881 5879 5877 5874 5872 5870 5867 5865 5863
5829 5835 5840 5845 5849 5854 5858 5861 5864 5867 5869 5872 5874 5876 5878 5879 5881 5884 5885 5886 5887 5888 5889 5889 5889 5889 5889 5889 5889 5888 5886 5885 5883 5881 5880 5878 5876 5873 5871 5869 5866 5864 5862 5859
5822 5827 5834 5838 5841 5845 5848 5852 5856 5859 5861 5864 5868 5870 5871 5873 5875 5877 5879 5881 5882 5883 5884 5884 5884 5884 5884 5884 5883 5882 5881 5879 5878 5877 5875 5873 5872 5869 5867 5864 5862 5860 5858 5855
5815 5820 5824 5829 5832 5836 5840 5845 5848 5851 5855 5858 5860 5862 5864 5867 5869 5871 5874 5875 5876 5877 5878 5879 5879 5879 5878 5878 5878 5877 5875 5874 5873 5872 5870 5868 5867 5865 5862 5860 5858 5856 5853 5851
5805 5810 5815 5819 5824 5828 5832 5836 5840 5844 5847 5850 5853 5855 5858 5861 5863 5864 5867 5869 5870 5871 5872 5872 5873 5873 5872 5872 5871 5871 5870 5869 5867 5866 5865 5863 5861 5860 5857 5855 5853 5851 5848 5846
5797 5802 5806 5811 5815 5820 5824 5829 5833 5836 5839 5843 5845 5847 5850 5853 5855 5857 5860 5861 5863 5864 5865 5866 5866 5866 5866 5866 5865 5865 5864 5863 5861 5860 5859 5857 5855 5853 5851 5849 5847 5845 5842 5840
5788 5794 5798 5802 5806 5811 5816 5820 5824 5828 5832 5834 5837 5840 5842 5844 5847 5850 5852 5854 5855 5857 5858 5858 5859 5859 5859 5859 5859 5858 5857 5856 5855 5854 5853 5851 5849 5847 5845 5843 5840 5838 5836 5833
5780 5785 5790 5794 5798 5802 5807 5811 5816 5820 5823 5826 5828 5831 5835 5837 5840 5842 5844 5846 5848 5849 5850 5851 5851 5851 5852 5852 5851 5851 5850 5849 5848 5847 5846 5844 5842 5840 5838 5836 5834 5831 5829 5827
5773 5778 5783 5786 5790 5796 5800 5803 5807 5811 5814 5817 5820 5823 5826 5829 5832 5834 5836 5838 5840 5841 5842 5843 5843 5844 5844 5844 5844 5843 5842 5841 5841 5840 5838 5837 5835 5833 5831 5829 5827 5825 5822 5820
5767 5771 5775 5779 5783 5788 5792 5795 5799 5803 5806 5808 5811 5814 5817 5821 5824 5826 5828 5830 5832 5833 5834 5835 5835 5836 5836 5836 5836 5835 5835 5834 5833 5832 5831 5829 5828 5825 5824 5822 5820 5818 5815 5812
5760 5763 5768 5772 5776 5780 5784 5787 5791 5794 5797 5800 5803 5806 5810 5813 5816 5818 5820 5822 5824 5825 5826 5826 5827 5827 5827 5827 5827 5827 5826 5826 5825 5824 5823 5822 5820 5818 5816 5815 5813 5810 5808 5805
5753 5757 5760 5764 5769 5773 5777 5780 5784 5787 5790 5793 5797 5799 5802 5804 5807 5810 5812 5813 5815 5816 5817 5818 5818 5819 5819 5819 5819 5819 5818 5818 5817 5816 5815 5814 5812 5811 5809 5806 5804 5802 5800 5797
5745 5750 5753 5757 5762 5765 5769 5772 5776 5780 5783 5786 5789 5792 5794 5796 5799 5801 5803 5804 5806 5807 5808 5809 5809 5810 5810 5811 5810 5810 5810 5809 5809 5808 5807 5806 5804 5802 5800 5798 5796 5794 5791 5789
5738 5742 5747 5751 5755 5758 5762 5765 5769 5772 5775 5778 5781 5784 5786 5789 5791 5793 5794 5796 5797 5799 5799 5800 5800 5801 5801 5801 5801 5801 5801 5800 5800 5799 5798 5797 5795 5793 5791 5789 5788 5786 5784 5781
5733 5737 5741 5744 5748 5751 5755 5758 5761 5765 5768 5771 5774 5776 5778 5780 5782 5784 5786 5787 5788 5790 5790 5791 5792 5792 5793 5792 5792 5792 5792 5791 5791 5790 5789 5787 5786 5785 5783 5781 5780 5778 5776 5774
5727 5731 5734 5737 5741 5744 5748 5751 5754 5758 5760 5763 5766 5768 5770 5772 5774 5776 5777 5779 5780 5781 5782 5783 5783 5784 5784 5784 5784 5783 5783 5782 5782 5781 5780 5779 5778 5776 5775 5773 5771 5770 5768 5766
5721 5725 5728 5731 5734 5738 5741 5744 5747 5750 5753 5756 5758 5760 5762 5764 5766 5767 5769 5771 5772 5773 5774 5774 5775 5775 5775 5775 5775 5775 5774 5774 5773 5772 5772 5771 5769 5768 5767 5765 5763 5762 5760 5759
5715 5718 5722 5725 5728 5731 5734 5737 5740 5743 5746 5748 5750 5752 5754 5756 5757 5759 5761 5762 5763 5764 5765 5766 5766 5767 5767 5767 5767 5766 5766 5766 5765 5764 5764 5762 5761 5760 5758 5757 5756 5754 5752 5751
5709 5712 5715 5718 5721 5724 5727 5730 5733 5735 5738 5740 5742 5744 5746 5748 5749 5751 5752 5753 5755 5756 5757 5758 5758 5759 5759 5759 5759 5759 5758 5758 5757 5756 5756 5754 5753 5752 5750 5749 5747 5746 5744 5742
5703 5706 5709 5712 5715 5717 5720 5723 5725 5727 5730 5732 5734 5736 5738 5740 5742 5743 5744 5746 5747 5748 5749 5750 5751 5751 5751 5751 5751 5751 5751 5750 5750 5749 5748 5747 5746 5744 5743 5741 5740 5738 5736 5734
5697 5700 5703 5705 5708 5711 5713 5715 5718 5720 5722 5725 5727 5729 5731 5732 5734 5735 5737 5738 5739 5741 5742 5742 5743 5743 5743 5744 5744 5744 5744 5743 5742 5742 5741 5739 5738 5737 5735 5734 5732 5730 5729 5727
5692 5694 5696 5699 5702 5704 5707 5709 5711 5713 5716 5718 5720 5722 5723 5725 5727 5728 5729 5731 5732 5733 5734 5735 5735 5736 5736 5736 5736 5736 5736 5736 5735 5734 5733 5732 5731 5730 5728 5727 5725 5723 5721 5719